DW9665 Sarajevo BA current weather conditions

sailwx.info

Air temperature 7.8° C
Dewpoint 2.2° C

Last reported at 2014-Oct-25 06:47 UTC.
Time now 2014-Oct-25 07:58 UTC

Location: N 43°50' E 018°21'.
View on Google Maps.

See reports from other nearby stations

  
Tides and Currents Weather Stations Pressure Air Temp Water Temp Dewpoint Dewpoint Depression Visibility Wind Speed Wind Dir Waves Ship Positions
date/time (UTC)wind fromknots sea level pressurealtimeterstation pressurevisibilityair tempwater tempwave heightnotes
2014-Oct-25 06:47 7.8
2014-Oct-25 06:32 180 7.8
2014-Oct-25 06:17 338 1 gusting 4 7.2
2014-Oct-25 06:02 270 7.2
2014-Oct-25 05:47 135 7.2
2014-Oct-25 05:32 338 0 gusting 3 7.2
2014-Oct-25 05:17 292 1 gusting 2 7.2
2014-Oct-25 05:02 180 1 gusting 3 7.8
2014-Oct-25 04:47 180 7.8
2014-Oct-25 04:32 338 7.2
2014-Oct-25 04:17 338 7.2
2014-Oct-25 04:02 270 1 gusting 3 7.2
2014-Oct-25 03:47 180 0 gusting 3 7.2
2014-Oct-25 03:32 270 1 gusting 3 7.2
2014-Oct-25 03:17 292 0 gusting 3 7.2
2014-Oct-25 03:02 292 0 gusting 2 7.2
2014-Oct-25 02:47 292 1 gusting 3 7.2
2014-Oct-25 02:32 270 7.2
2014-Oct-25 02:17 315 1 gusting 3 7.2
2014-Oct-25 02:02 292 1 gusting 3 7.8
2014-Oct-25 01:47 270 1 gusting 2 7.8
2014-Oct-25 01:32 180 7.8
2014-Oct-25 01:17 315 0 gusting 1 7.2
2014-Oct-25 01:02 180 7.2
2014-Oct-25 00:47 292 0 gusting 1 7.2
2014-Oct-25 00:32 180 7.2
2014-Oct-25 00:17 180 7.2
2014-Oct-25 00:02 180 1 gusting 1 7.8
2014-Oct-24 23:47 270 7.8
2014-Oct-24 23:32 180 0 gusting 3 7.8
2014-Oct-24 23:17 112 0 gusting 1 7.8
2014-Oct-24 23:02 158 7.2
2014-Oct-24 22:47 180 7.2
2014-Oct-24 22:32 270 2 gusting 3 7.2
2014-Oct-24 22:17 270 1 gusting 3 7.2
2014-Oct-24 22:02 270 0 gusting 2 7.2
2014-Oct-24 21:47 315 7.2
2014-Oct-24 21:32 270 1 gusting 1 7.2
2014-Oct-24 21:17 180 7.2
2014-Oct-24 21:02 270 0 gusting 2 7.2
2014-Oct-24 20:47 158 7.2
2014-Oct-24 20:32 180 7.2
2014-Oct-24 20:17 315 7.2
2014-Oct-24 20:02 022 7.2
2014-Oct-24 19:47 180 0 gusting 3 7.2
2014-Oct-24 19:32 135 1 gusting 1 7.2
2014-Oct-24 19:17 7.2
2014-Oct-24 19:02 338 0 gusting 1 7.2
2014-Oct-24 18:47 180 7.2
2014-Oct-24 18:17 022 7.2
2014-Oct-24 18:02 180 7.2
2014-Oct-24 17:47 270 0 gusting 3 6.7
2014-Oct-24 17:32 180 1 gusting 3 7.2
2014-Oct-24 17:17 270 0 gusting 3 7.2
2014-Oct-24 17:02 292 1 gusting 3 7.2
2014-Oct-24 16:47 158 0 gusting 3 7.2
2014-Oct-24 16:32 270 1 gusting 2 7.2
2014-Oct-24 16:17 7.2
2014-Oct-24 16:02 068 0 gusting 4 7.2
2014-Oct-24 15:47 112 7.2
2014-Oct-24 15:32 270 7.8
2014-Oct-24 15:17 022 2 gusting 4 7.8
2014-Oct-24 15:02 135 1 gusting 3 7.8
2014-Oct-24 14:47 180 0 gusting 3 7.8
2014-Oct-24 14:17 292 2 gusting 6 7.8
2014-Oct-24 14:02 270 5 gusting 6 7.8
2014-Oct-24 13:47 270 2 gusting 5 8.3
2014-Oct-24 13:32 270 4 gusting 5 7.8
2014-Oct-24 13:17 292 3 gusting 8 8.3
2014-Oct-24 13:02 292 1 gusting 5 8.3
2014-Oct-24 12:47 180 0 gusting 6 8.3
2014-Oct-24 12:32 270 2 gusting 8 7.8
2014-Oct-24 12:17 7.8
2014-Oct-24 12:02 292 4 gusting 4 7.8
2014-Oct-24 11:47 270 1 gusting 6 7.8
2014-Oct-24 11:32 292 2 gusting 5 7.8
2014-Oct-24 11:17 270 1 gusting 5 7.8
2014-Oct-24 11:02 292 3 gusting 4 7.2
2014-Oct-24 10:47 292 2 gusting 4 7.2
2014-Oct-24 10:32 292 3 gusting 4 7.2
2014-Oct-24 10:17 270 1 gusting 5 7.2
2014-Oct-24 10:02 180 3 gusting 5 6.7
2014-Oct-24 09:47 180 2 gusting 3 6.7
2014-Oct-24 09:32 270 1 gusting 2 6.7
2014-Oct-24 09:17 292 0 gusting 3 6.7
2014-Oct-24 09:02 090 0 gusting 2 6.7
2014-Oct-24 08:47 135 1 gusting 2 6.7
2014-Oct-24 08:32 112 0 gusting 1 6.7
2014-Oct-24 08:17 6.1
2014-Oct-24 08:02 270 0 gusting 4 5.6
2014-Oct-24 07:47 315 5.6
2014-Oct-24 07:32 270 1 gusting 2 5.0
2014-Oct-24 07:17 180 2 gusting 3 4.4
2014-Oct-24 07:02 270 1 gusting 5 4.4
2014-Oct-24 06:47 292 3 gusting 5 4.4
2014-Oct-24 06:32 090 1 gusting 1 4.4
2014-Oct-24 06:17 158 4.4
2014-Oct-24 06:02 135 0 gusting 1 4.4
2014-Oct-24 05:47 135 0 gusting 1 4.4
2014-Oct-24 05:32 135 3.9
2014-Oct-24 05:17 3.9
2014-Oct-24 05:02 022 3.9
2014-Oct-24 04:47 158 2 gusting 4 3.9
2014-Oct-24 04:32 112 1 gusting 2 3.9
2014-Oct-24 04:17 112 1 gusting 2 3.9
2014-Oct-24 04:02 158 2 gusting 5 3.9
2014-Oct-24 03:47 135 0 gusting 3 3.9
2014-Oct-24 03:32 270 0 gusting 2 3.9
2014-Oct-24 03:17 180 1 gusting 3 3.9
2014-Oct-24 03:02 292 3 gusting 3 3.9
2014-Oct-24 02:47 270 3.9
2014-Oct-24 02:32 158 3.9
2014-Oct-24 02:17 180 3.9
2014-Oct-24 02:02 270 0 gusting 3 3.9
2014-Oct-24 01:47 180 1 gusting 2 3.9
2014-Oct-24 01:32 180 1 gusting 4 3.9
2014-Oct-24 01:17 180 0 gusting 2 3.9
2014-Oct-24 01:02 292 0 gusting 1 3.9
2014-Oct-24 00:47 135 0 gusting 1 3.9
2014-Oct-24 00:32 158 0 gusting 2 3.9
2014-Oct-24 00:17 135 0 gusting 1 3.9
2014-Oct-24 00:02 270 3.9
2014-Oct-23 23:47 135 0 gusting 1 3.9
2014-Oct-23 23:32 338 0 gusting 1 3.9
2014-Oct-23 23:17 090 1 gusting 1 3.9
2014-Oct-23 23:02 090 3.9
2014-Oct-23 22:47 158 0 gusting 3 3.9
2014-Oct-23 22:32 135 1 gusting 2 3.9
2014-Oct-23 22:17 112 3.9
2014-Oct-23 22:02 112 3.9
2014-Oct-23 21:47 3.9
2014-Oct-23 21:32 158 1 gusting 1 3.9
2014-Oct-23 21:17 338 0 gusting 2 3.9
2014-Oct-23 21:02 022 3.9
2014-Oct-23 20:47 158 3.9
2014-Oct-23 20:32 158 1 gusting 3 3.9
2014-Oct-23 20:17 180 0 gusting 1 4.4
2014-Oct-23 20:02 045 0 gusting 2 4.4
2014-Oct-23 19:47 045 4.4
2014-Oct-23 19:32 090 3.9
2014-Oct-23 19:17 090 1 gusting 1 4.4
2014-Oct-23 19:02 090 3.9
2014-Oct-23 18:47 135 0 gusting 1 4.4
2014-Oct-23 18:17 158 0 gusting 1 4.4
2014-Oct-23 18:02 180 0 gusting 1 3.9
2014-Oct-23 17:47 180 4.4
2014-Oct-23 17:32 158 4.4
2014-Oct-23 17:17 158 1 gusting 3 4.4
2014-Oct-23 17:02 158 1 gusting 3 4.4
2014-Oct-23 16:47 180 0 gusting 3 4.4
2014-Oct-23 16:32 180 0 gusting 1 4.4
2014-Oct-23 16:17 338 0 gusting 2 4.4
2014-Oct-23 16:02 112 4.4
2014-Oct-23 15:47 135 4.4
2014-Oct-23 15:32 180 2 gusting 3 4.4
2014-Oct-23 15:17 135 5.0
2014-Oct-23 15:02 338 5.0
2014-Oct-23 14:47 180 4.4
2014-Oct-23 14:32 292 4.4
2014-Oct-23 14:17 338 4.4
2014-Oct-23 14:02 112 0 gusting 2 4.4
2014-Oct-23 13:47 135 0 gusting 1 4.4
2014-Oct-23 13:32 4.4
2014-Oct-23 13:17 315 0 gusting 1 4.4
2014-Oct-23 13:02 158 4.4
2014-Oct-23 12:47 112 4.4
2014-Oct-23 12:32 180 4.4
2014-Oct-23 12:17 270 4.4
2014-Oct-23 12:02 135 4.4
2014-Oct-23 11:47 158 0 gusting 0 4.4
2014-Oct-23 11:32 338 4.4
2014-Oct-23 11:17 180 3.9
2014-Oct-23 11:02 022 4.4
2014-Oct-23 10:47 292 1 gusting 3 3.9
2014-Oct-23 10:32 292 1 gusting 2 3.9
2014-Oct-23 10:17 270 0 gusting 2 3.9
2014-Oct-23 10:02 270 1 gusting 1 3.9
2014-Oct-23 09:47 270 3.9
2014-Oct-23 09:32 338 3.9
2014-Oct-23 09:17 3.9
2014-Oct-23 09:02 270 0 gusting 2 3.3
2014-Oct-23 08:47 112 3.3
2014-Oct-23 08:32 135 0 gusting 4 3.3
2014-Oct-23 08:17 135 0 gusting 2 3.3
2014-Oct-23 08:02 112 0 gusting 2 2.8
2014-Oct-23 07:47 158 2.8
2014-Oct-23 07:32 338 2.8
2014-Oct-23 07:17 292 2.8
2014-Oct-23 07:02 270 2.2